CAPE
0 0 0 0 0 0 0 0 0 0 0 0 0 0 0 0 0 0 0 0 0 0 0 0 0 0 0 0 0 0 0 0 1 0 0 0 0 1 1 3 3 1 0
0 0 0 0 0 0 0 0 0 0 0 0 0 0 0 0 0 0 0 0 0 0 0 0 0 0 0 0 0 0 0 1 6 4 6 2 0 2 5 12 1 13 2
0 0 0 0 0 0 0 0 0 0 0 0 0 0 0 0 0 0 0 0 0 0 0 0 0 0 0 0 0 0 2 9 11 17 1 2 7 6 12 11 12 7 6
0 0 0 0 0 0 0 0 0 0 0 0 0 0 0 0 0 0 0 0 0 0 0 2 2 1 1 0 2 5 9 14 5 6 6 3 0 0 5 7 1 5 6
0 0 0 0 0 0 0 0 0 0 0 0 0 0 0 0 0 0 0 0 0 0 0 0 0 1 11 9 17 21 4 4 1 2 2 2 1 1 2 1 4 4 4
0 0 0 0 0 0 0 0 0 0 0 0 0 0 0 0 0 0 0 0 1 0 0 0 2 4 4 22 24 12 16 13 18 6 2 1 0 2 1 1 2 6 4
0 0 0 0 0 0 0 0 0 0 0 0 0 0 0 0 0 0 2 1 0 0 2 6 7 8 10 15 14 17 10 12 19 6 11 11 10 1 0 1 2 3 1
0 0 0 0 0 0 0 0 0 0 0 0 0 0 0 0 0 0 0 1 7 6 8 11 13 8 14 12 12 6 5 9 7 4 9 2 5 10 20 19 12 7 13
0 0 0 0 0 0 0 0 0 0 0 0 0 0 0 0 0 0 2 4 3 8 13 11 13 11 16 25 12 7 4 0 2 9 29 47 58 39 40 24 2 4 1
0 0 0 0 0 0 0 0 0 0 0 0 0 0 0 0 0 1 7 10 7 5 1 6 9 10 13 16 14 4 8 7 12 1 0 0 5 1 4 9 10 14 14
0 0 0 0 0 0 0 0 0 0 0 0 0 0 0 0 0 3 12 16 17 8 8 2 12 7 10 10 17 9 0 5 7 4 2 5 5 4 6 9 5 0 1
0 0 0 0 0 0 0 1 2 1 2 0 0 0 0 0 5 8 5 14 21 20 10 15 13 10 17 15 21 16 15 16 4 2 0 0 1 5 4 5 1 3 6
0 0 0 0 0 0 0 1 1 1 0 0 0 0 2 7 6 2 4 15 17 12 25 49 36 23 17 9 4 8 17 2 1 1 0 5 3 2 0 4 0 0 1
0 0 0 0 0 0 0 0 0 0 0 0 0 3 4 0 2 5 7 11 16 15 14 8 9 8 8 5 6 2 1 4 5 2 3 3 1 0 0 1 0 0 1
0 1 1 0 0 0 0 0 0 0 0 1 4 8 1 5 5 13 19 18 14 29 13 5 2 2 0 0 2 0 5 6 11 9 1 2 3 0 0 0 0 0 1
0 0 0 0 0 0 0 0 0 0 2 1 1 0 3 6 10 10 21 15 39 10 9 2 4 2 2 3 4 0 3 1 6 7 9 3 0 1 0 0 0 1 2
1 0 0 0 0 0 0 0 1 0 3 2 4 1 0 3 4 8 16 27 9 9 0 0 0 2 3 3 1 1 1 0 3 4 6 8 1 1 2 1 1 2 1
1 0 0 0 0 0 0 1 0 1 1 0 1 3 1 0 1 8 14 6 0 1 0 0 1 1 2 2 2 3 0 0 1 3 6 7 2 1 2 0 0 1 1
1 0 0 0 0 0 0 0 0 0 0 0 0 0 4 4 10 8 4 0 1 0 1 1 1 1 1 1 0 0 0 0 0 3 4 4 6 2 1 1 1 1 1
0 0 0 0 0 0 0 0 1 1 4 2 1 2 2 2 5 0 0 1 0 0 0 1 0 0 0 1 0 1 1 1 0 1 2 1 1 0 1 1 1 1 0
0 0 0 0 0 0 0 1 0 0 0 3 3 3 6 4 1 0 1 1 0 0 0 0 0 1 1 1 1 0 0 0 0 1 4 2 0 1 0 0 1 1 1
0 0 0 0 0 1 0 0 0 0 1 2 2 3 2 1 0 1 0 1 0 1 1 0 0 0 0 1 1 1 0 0 0 1 2 1 1 0 0 1 1 2 2
0 0 0 0 0 0 0 0 0 1 3 4 3 1 1 0 0 0 1 1 2 3 3 2 2 1 2 1 1 2 1 0 1 1 1 1 1 1 0 0 1 2 3
0 0 0 0 1 0 0 1 2 2 3 3 4 2 0 0 1 1 2 3 3 3 3 5 4 3 1 0 0 2 2 1 2 2 2 2 1 0 1 1 1 2 3
0 0 0 0 0 0 1 0 3 5 3 3 2 1 1 1 1 1 1 3 3 4 3 2 0 0 0 0 0 1 1 0 1 1 2 2 0 1 1 1 1 3 3
0 0 0 0 0 0 1 1 2 4 3 3 0 0 0 0 1 1 1 2 1 1 1 0 0 0 0 0 0 1 1 1 1 2 1 1 0 2 2 2 2 2 1
CIN
0 0 0 0 0 0 0 0 0 0 0 0 0 0 0 0 0 0 0 0 0 0 0 0 0 0 0 0 0 0 0 0 0 0 0 0 0 -1 -1 -1 -1 -2 0
0 0 0 0 0 0 0 0 0 0 0 0 0 0 0 0 0 0 0 0 0 0 0 0 0 0 0 0 0 0 0 -1 -1 0 0 -3 0 -3 -2 -1 -6 -1 -3
0 0 0 0 0 0 0 0 0 0 0 0 0 0 0 0 0 0 0 0 0 0 0 0 0 0 0 0 0 -1 -1 0 -1 -2 -7 -13 -3 -1 -4 -3 -4 -3 -3
0 0 0 0 0 0 0 0 0 0 0 0 0 0 0 0 0 0 0 0 0 0 0 -1 -1 -1 -1 -1 -1 -1 0 0 -3 -10 -1 -1 0 0 -3 -1 -1 -6 -8
0 0 0 0 0 0 0 0 0 0 0 0 0 0 0 0 0 0 0 0 0 0 0 0 0 -1 -3 -2 -3 -4 -3 -2 0 0 0 0 0 -1 0 -4 0 0 -3
0 0 0 0 0 0 0 0 0 0 0 0 0 0 0 0 0 0 0 -1 -1 0 0 -1 -3 -2 -10 -2 -1 -2 -2 -2 0 -3 0 0 0 0 0 0 -1 0 -2
0 0 0 0 0 0 0 0 0 0 0 0 0 0 0 0 0 -1 -1 -1 0 -1 -2 -2 -3 -1 -2 -1 -1 -1 -2 -1 -2 -3 -1 -1 -1 0 -1 0 -2 0 -2
0 0 0 0 0 0 0 0 0 0 0 0 0 0 0 0 -1 0 0 -1 -1 -1 -1 -1 -1 -2 0 -2 -1 -1 0 0 -1 -6 -1 -2 -7 -9 -1 -1 0 -1 -2
0 0 0 0 0 0 0 0 0 0 0 0 0 0 0 0 0 0 -1 -1 -2 -1 -1 -1 -1 -2 -1 -1 -2 -1 0 0 -3 -1 0 -1 -1 -1 -1 -1 -2 -2 0
0 0 0 0 0 0 0 0 0 0 0 0 0 0 0 0 0 -1 -2 -2 -1 -5 -1 -1 -1 -1 -1 -1 -2 -1 0 0 0 -1 0 0 -2 -1 -1 -1 -4 0 0
0 0 0 0 0 0 0 0 0 -1 0 -1 0 0 0 0 0 -1 -1 -1 -1 -1 0 0 0 -1 -1 -1 -1 0 0 -1 0 0 0 0 -1 0 -2 -2 -5 0 0
0 0 0 0 0 0 0 -1 -1 -2 -1 -1 0 0 0 0 -1 -2 -1 -1 -1 0 -1 0 -1 -1 -1 -1 0 -1 -1 -1 -3 0 0 0 0 -1 -2 -2 -5 -3 0
0 0 -2 0 0 0 0 -1 -2 -2 0 0 0 0 -2 -2 -2 -1 -1 -1 -1 -1 0 0 0 -1 0 -1 -1 -1 -1 0 0 0 0 0 0 -7 -10 -3 -4 0 -3
0 -2 0 0 0 0 -1 -2 0 0 0 -1 -1 0 -1 -2 -6 -2 0 -1 0 0 -1 -1 -1 -2 -1 -1 -2 -3 -1 -1 -1 -2 -3 -1 -5 -9 -3 -1 -1 0 0
-1 -2 -2 -1 0 0 0 0 0 0 -1 -1 -1 0 -2 -1 -2 -1 -1 0 -1 0 -1 -1 -3 -2 -4 -1 -3 -3 -1 -1 -1 -1 -4 -4 -2 -3 -1 0 0 0 0
0 -2 -1 0 0 0 0 0 0 -1 -1 -1 -1 -2 0 -1 -1 -1 0 -1 0 -1 -2 0 -1 -2 -1 0 -1 0 -2 -2 -1 -1 -1 -4 -2 0 0 0 0 0 0
-1 -1 0 0 0 0 0 0 0 0 -1 0 -1 -2 -2 -1 -1 -1 -1 -1 -1 -1 0 -1 0 0 0 0 0 0 -1 -2 -2 -1 -1 -1 -2 -1 -1 0 0 0 0
-1 0 0 0 0 0 0 -1 0 0 -1 -2 0 -1 -1 -3 -1 -1 -1 -2 -1 -3 -1 0 0 0 0 0 0 0 0 -1 -2 -1 -1 -1 -3 -1 0 0 0 0 0
-1 0 0 0 0 0 -2 -1 -1 -1 0 -1 0 -1 -1 -1 -1 -1 -1 -2 0 0 0 0 0 0 0 0 0 0 0 0 0 -1 -1 -1 -1 -1 0 0 0 0 0
0 0 0 0 0 0 -1 -1 -2 -1 0 -1 -1 -1 -1 -3 0 -6 0 0 0 0 0 0 0 0 0 0 0 0 0 0 0 -3 -2 -1 -1 0 0 0 0 0 0
0 0 0 0 0 0 -1 -1 0 -5 -1 -1 0 -1 -1 -3 -2 -2 -1 -1 0 0 0 0 0 0 0 0 0 0 0 0 0 -1 -1 -1 0 0 0 0 0 0 0
0 0 0 0 0 -1 0 0 0 -1 -1 -1 -2 -2 -2 -3 0 0 0 0 0 0 0 0 0 0 0 0 0 0 0 0 0 -1 -1 -1 0 0 0 0 0 0 0
0 0 0 0 -2 -2 0 -3 -1 -2 -1 -1 -2 -2 -2 0 0 0 0 0 0 0 0 0 0 0 0 0 0 -1 0 0 0 0 -1 0 0 0 0 0 0 0 0
0 0 0 0 -2 0 -3 0 -2 -2 -1 -1 -2 -2 0 0 0 0 0 0 0 0 0 0 0 0 0 0 0 0 -1 0 0 0 0 0 0 0 0 0 0 0 0
0 0 0 0 -1 0 0 -1 -1 -1 0 -2 -2 0 0 0 0 0 0 0 0 0 0 0 0 0 0 0 0 -1 0 0 0 0 0 0 0 0 0 0 0 0 0
0 0 0 0 0 -1 -2 -2 -2 -2 -1 -1 -1 0 0 0 0 0 0 0 0 0 0 0 0 0 0 0 0 -1 0 0 0 0 0 0 0 0 0 0 0 0 0
Wind_Speed
7 8 10 12 14 16 17 18 20 21 23 25 27 28 29 30 31 32 33 34 35 35 35 35 36 35 35 34 34 34 36 35 40 43 38 36 37 37 36 36 36 37 37
8 10 12 14 16 17 19 20 22 24 25 27 28 29 30 31 31 32 33 33 34 35 35 35 36 34 34 32 33 31 31 31 33 38 38 37 38 39 38 37 36 37 37
11 13 14 16 18 20 21 23 24 26 26 27 28 29 30 31 32 32 32 32 33 33 33 33 32 30 28 26 25 24 24 24 22 24 36 34 29 29 34 34 34 34 33
13 14 16 18 20 22 24 25 26 26 27 28 28 29 30 30 30 30 30 30 29 27 26 24 22 23 25 25 25 24 23 24 26 25 19 22 28 31 32 35 35 31 32
15 17 19 21 23 24 25 25 26 27 27 27 28 28 28 29 28 28 27 26 22 19 22 24 26 26 29 30 28 26 25 23 20 18 17 15 16 20 22 28 30 30 28
18 19 21 23 24 25 26 27 28 27 26 26 26 27 28 27 26 25 21 18 20 24 26 29 32 32 28 23 23 19 18 19 17 15 16 13 14 17 21 20 23 28 30
20 21 23 24 25 27 27 27 27 26 25 26 27 27 27 26 26 23 22 22 24 25 27 26 25 21 19 21 21 19 21 18 12 12 14 15 19 15 14 14 15 20 27
21 22 24 25 27 27 27 27 26 25 26 26 26 26 25 23 23 23 23 23 24 23 20 18 17 20 15 14 12 14 10 14 10 13 13 15 16 16 15 17 20 21 17
23 24 25 26 28 28 28 26 25 26 25 26 26 25 19 24 26 25 24 26 26 23 20 18 17 15 14 9 10 17 9 10 10 12 12 13 13 13 14 23 21 24 24
24 26 26 27 27 26 25 26 26 25 25 26 24 22 24 22 24 26 29 25 23 22 20 18 18 16 10 9 14 19 16 20 22 19 22 18 19 21 21 23 26 30 32
25 26 27 26 25 25 26 26 26 26 26 27 21 25 24 25 29 24 24 21 21 19 18 19 18 13 10 10 12 23 23 22 23 22 23 22 24 25 25 23 25 28 30
26 26 25 24 25 25 26 26 25 26 35 36 27 24 24 28 24 22 18 14 12 15 14 15 15 10 10 12 19 22 28 30 29 26 26 26 25 23 22 24 23 23 24
25 26 25 25 25 26 26 25 25 34 36 32 27 27 22 22 22 19 14 11 12 10 10 9 10 12 16 20 23 24 26 25 24 23 23 22 20 22 24 21 21 26 28
25 24 24 24 25 22 21 9 30 34 30 31 29 19 23 22 20 18 16 17 12 14 12 13 13 13 16 17 20 20 19 17 18 17 20 20 18 17 15 16 20 21 26
21 19 17 15 3 10 17 22 16 8 21 28 12 21 22 18 20 16 13 16 14 15 13 20 18 16 18 18 17 18 16 16 13 3 9 12 15 16 16 18 21 22 18
14 7 1 6 9 9 8 7 12 27 25 20 13 7 18 14 14 18 16 13 13 17 19 17 16 17 15 18 17 16 12 5 17 13 12 11 13 15 15 15 16 15 15
15 9 5 2 3 3 3 7 14 8 7 6 15 8 12 17 19 20 19 21 25 24 22 20 18 15 16 16 14 10 6 20 18 13 12 11 11 13 14 13 13 13 12
17 12 10 7 8 11 9 23 15 8 17 9 18 15 15 21 25 26 27 29 25 23 20 18 19 19 14 12 11 8 14 23 17 16 13 11 10 13 15 13 11 8 6
17 17 17 15 17 18 25 25 17 14 20 21 23 21 20 17 17 25 25 23 23 23 22 21 19 19 17 12 9 3 24 24 21 19 14 12 13 12 12 10 8 8 9
22 20 20 20 21 23 27 22 19 20 25 26 26 20 21 22 23 24 22 24 24 22 23 24 23 21 18 11 7 1 26 27 24 19 14 11 11 9 7 8 8 6 8
24 22 23 22 24 24 25 23 24 26 24 27 25 22 21 25 24 22 23 25 24 22 20 22 25 26 26 15 5 4 25 29 27 24 12 4 3 11 9 9 8 6 9
24 24 24 24 23 25 26 25 21 22 18 20 23 26 27 27 23 24 25 22 20 18 16 15 16 21 28 28 6 8 15 30 29 28 9 8 12 10 7 4 4 7 8
25 25 25 26 26 28 26 24 20 19 20 22 24 25 26 25 25 24 24 20 18 18 15 12 10 8 8 15 14 10 14 30 29 28 21 18 10 10 6 2 6 9 8
27 27 26 27 29 29 28 28 23 21 22 22 22 23 24 25 24 24 21 19 19 17 14 12 10 9 13 13 28 16 23 30 29 27 22 18 12 11 7 3 6 7 7
28 28 27 27 31 30 29 29 25 27 26 24 23 24 26 25 25 23 20 20 20 17 16 14 10 8 10 13 25 23 25 30 29 28 25 20 13 10 7 3 7 8 7
29 29 29 29 30 32 30 31 28 24 25 25 26 26 24 23 24 21 19 21 20 19 17 17 13 8 14 18 24 21 23 26 25 24 25 21 12 7 3 4 8 7 7
Wind_Direction
345 344 340 339 339 337 335 334 333 331 329 327 326 324 323 322 322 320 319 318 316 315 314 313 312 312 311 310 309 308 305 304 302 302 305 307 305 303 303 301 299 297 295
350 344 340 338 336 335 334 333 331 328 328 327 326 325 324 323 322 321 320 319 318 316 316 314 313 314 312 312 310 308 307 307 306 304 305 305 304 302 302 301 299 298 295
345 340 338 336 335 333 332 330 329 328 327 327 326 325 325 325 324 323 322 321 319 318 318 317 317 317 316 316 314 311 309 307 303 305 306 308 308 309 304 303 301 300 299
342 339 336 335 333 332 330 329 329 329 327 327 327 327 327 326 325 325 324 323 323 324 323 320 318 316 315 313 311 308 307 306 308 307 301 309 308 306 306 301 300 302 299
340 337 335 334 333 332 331 330 330 329 329 329 329 329 328 328 328 328 328 328 328 324 323 321 319 316 317 314 310 309 307 304 296 293 296 288 300 309 311 308 304 303 304
337 335 335 333 333 332 331 331 330 330 330 330 330 331 331 331 332 331 332 329 327 326 324 324 322 319 317 313 312 303 300 304 302 302 305 290 300 308 312 309 308 304 303
336 336 335 334 333 332 332 331 331 331 332 332 332 332 332 332 333 334 333 331 329 327 326 325 324 324 320 322 321 318 318 314 276 299 304 301 310 307 305 301 302 303 301
337 336 336 335 334 333 333 333 334 335 334 334 334 334 334 335 335 335 334 332 330 329 325 325 322 327 323 319 314 320 262 246 290 307 303 307 307 306 310 311 309 304 302
339 337 336 335 334 334 334 336 337 336 337 336 335 336 338 336 336 336 336 334 334 333 330 330 329 326 328 309 268 251 285 275 295 266 274 301 298 294 297 310 303 308 303
339 337 336 335 335 336 338 337 337 338 337 338 338 340 338 339 339 338 338 336 334 336 337 336 334 332 302 282 327 329 323 324 323 317 314 314 314 313 309 307 305 301 300
341 339 337 338 340 339 337 337 338 338 338 337 343 340 340 341 339 341 342 339 338 339 339 340 340 332 318 318 320 327 324 324 323 322 319 316 314 311 308 306 304 302 300
343 341 342 343 342 339 338 339 340 339 307 318 340 343 344 341 344 345 344 342 336 341 338 338 340 326 314 300 328 326 324 321 320 317 314 312 311 311 308 307 305 302 302
346 343 345 345 343 341 340 342 342 295 304 334 342 343 345 348 349 348 348 344 347 318 336 324 291 326 333 333 331 330 329 329 326 324 323 321 321 319 313 309 303 298 298
349 349 350 348 346 350 352 342 287 299 334 338 341 346 347 348 350 354 354 352 343 349 343 345 339 331 334 337 342 341 340 340 337 335 334 331 331 331 324 317 305 306 301
1 3 5 8 335 251 258 269 281 358 352 279 341 349 348 350 351 347 342 350 348 348 336 345 346 350 350 348 348 350 345 348 350 351 203 213 211 204 204 206 217 223 221
26 34 248 240 245 245 251 261 7 347 280 271 269 316 354 349 346 349 347 339 336 346 348 349 351 352 353 353 352 353 358 4 230 215 199 194 202 207 206 207 210 213 216
30 44 56 65 48 19 353 274 275 312 327 297 272 350 356 355 354 353 349 347 346 348 348 349 350 352 352 353 357 357 9 241 231 213 201 194 198 203 207 208 208 210 216
27 40 43 41 32 22 14 360 5 344 280 297 5 3 359 357 354 352 350 347 349 349 350 349 347 349 353 355 358 4 229 245 224 219 206 195 192 203 210 208 211 222 252
28 27 23 23 16 11 357 358 10 9 3 0 0 3 2 360 355 355 354 354 350 348 347 347 347 347 351 356 358 346 247 246 233 225 209 204 205 197 204 211 226 249 289
13 16 16 13 10 6 359 7 9 6 360 357 358 3 3 359 359 357 357 353 350 347 344 342 342 343 346 353 353 270 251 253 242 224 207 198 197 194 204 221 236 282 316
10 13 11 12 7 7 6 9 7 2 3 358 359 2 360 357 355 354 352 352 351 349 345 342 338 334 333 348 343 226 242 259 253 237 197 160 150 203 211 226 247 299 335
11 13 13 12 13 9 7 9 14 10 11 7 3 -0 359 359 359 358 357 357 357 355 351 346 342 337 325 323 336 223 215 261 259 260 186 183 196 204 215 239 301 323 334
11 13 14 9 9 6 10 13 16 16 13 9 5 3 2 2 2 1 1 1 359 356 353 345 335 313 323 332 338 217 206 258 256 253 223 213 192 210 220 277 339 349 346
10 12 15 10 3 8 10 9 16 17 14 11 10 9 6 4 4 3 3 1 358 355 350 345 335 280 251 238 254 219 221 258 261 251 220 212 202 218 224 284 346 320 327
10 13 16 14 1 9 11 12 17 12 13 15 14 11 8 8 7 5 2 0 358 351 350 345 333 293 254 235 242 231 227 249 257 254 240 221 208 220 228 284 344 323 288
9 12 16 15 9 4 12 12 16 18 16 14 12 10 10 9 7 4 359 357 354 346 338 348 346 290 248 237 244 222 216 250 260 259 251 227 206 207 225 299 343 311 277